Location: Unspecified
(0.0000°N, 0.0000°E)
Time: 23:55:23
(UTC+00:00)

Courier 1B Rocket - Pass Details

Date: 01 October 2020
Orbit: 920 x 1202 km, 28.2° (Epoch: 28 October)

Event Time Altitude Azimuth Distance (km) Brightness Sun altitude
Rises 14:30:03 0° 285° (WNW) 3,712 8.6 49.7°
Reaches altitude 10° 14:32:47 10° 278° (W) 2,804 8.3 49.0°
Maximum altitude 14:39:15 43° 208° (SSW) 1,469 6.9 47.4°
Drops below altitude 10° 14:46:11 10° 139° (SE) 3,008 7.4 45.7°
Sets 14:49:14 0° 132° (SE) 4,006 7.9 45.0°
